This is the latest recevied weather packets stored in our database for station/object KG7BDA. If no packets are shown the sender has not sent any weather packets the latest 10 day(s).
| Time | Temp. | Humidity | Pressure | Rain* | Wind** | Luminosity | Snow |
|---|---|---|---|---|---|---|---|
| 1777853356 | 25° C | 26% | 1010 hPa | 0 mm | - | - | - |
| 1777852996 | 25° C | 28% | 1010.2 hPa | 0 mm | - | - | - |
| 1777852668 | 25° C | 28% | 1010.1 hPa | 0 mm | - | - | - |
| 1777852636 | 25° C | 28% | 1010.1 hPa | 0 mm | - | - | - |
| 1777852276 | 25° C | 28% | 1010.2 hPa | 0 mm | - | - | - |
| 1777851917 | 25° C | 29% | 1010.2 hPa | 0 mm | - | - | - |
| 1777851556 | 25° C | 28% | 1010.1 hPa | 0 mm | - | - | - |
| 1777851197 | 25° C | 28% | 1010.3 hPa | 0 mm | - | - | - |
| 1777850476 | 25° C | 29% | 1010.4 hPa | 0 mm | - | - | - |
| 1777850117 | 25° C | 28% | 1010.4 hPa | 0 mm | - | - | - |
| 1777849756 | 25° C | 27% | 1010.5 hPa | 0 mm | - | - | - |
| 1777849397 | 25° C | 28% | 1010.6 hPa | 0 mm | - | - | - |
| 1777849070 | 25° C | 28% | 1010.8 hPa | 0 mm | - | - | - |
| 1777849036 | 25° C | 28% | 1010.8 hPa | 0 mm | - | - | - |
| 1777848677 | 25° C | 27% | 1010.8 hPa | 0 mm | - | - | - |
| 1777848316 | 24.44° C | 27% | 1011 hPa | 0 mm | - | - | - |
| 1777847956 | 25° C | 31% | 1011.1 hPa | 0 mm | - | - | - |
| 1777847596 | 24.44° C | 29% | 1011.3 hPa | 0 mm | - | - | - |
| 1777847236 | 24.44° C | 27% | 1011.4 hPa | 0 mm | - | - | - |
| 1777846877 | 24.44° C | 30% | 1011.5 hPa | 0 mm | - | - | - |
| 1777846516 | 24.44° C | 30% | 1011.6 hPa | 0 mm | - | - | - |
| 1777846156 | 24.44° C | 32% | 1011.7 hPa | 0 mm | - | - | - |
| 1777845797 | 23.89° C | 30% | 1011.7 hPa | 0 mm | - | - | - |
| 1777845077 | 23.89° C | 30% | 1012 hPa | 0 mm | - | - | - |
| 1777845058 | 23.89° C | 31% | 1012.1 hPa | 0 mm | - | - | - |
* Rain latest hour (hover to see other rain measurements)
** Current wind speed in m/s (hover to see current wind gust speed)